Weather History for Warrensburg, MO

Change the Weather History Date:

Thursday, April 18, 2013

  Actual Average (KSZL) Record (KSZL)
Temperature  
Mean Temperature 44 °F -  
Max Temperature 50 °F 65 °F 89 °F (2006)
Min Temperature 37 °F 45 °F 33 °F (1999)
Degree Days  
Heating Degree Days 22    
Moisture  
Dew Point 38 °F    
Average Humidity 84    
Maximum Humidity 100    
Minimum Humidity 65    
Precipitation  
Precipitation 0.03 in - - ()
Sea Level Pressure  
Sea Level Pressure 29.72 in    
Wind  
Wind Speed 9 mph (West)    
Max Wind Speed 22 mph    
Max Gust Speed 28 mph    
Visibility 9 miles    
Events Rain , Thunderstorm    
Averages and records for this station are not official NWS values.
T = Trace of Precipitation, MM = Missing Value Source: NWS Daily Summary

Daily Weather History Graph

Daily Weather History Graph

Search for Another Location

Airport:

Trip Planner

Search our weather history database for the weather conditions in past years. The results will help you decide how hot, cold, wet, or windy it might be!

Date:

Astronomy

Apr. 18, 2013 Rise Set
Actual Time 6:34 AM CDT 7:55 PM CDT
Civil Twilight 6:06 AM CDT 8:23 PM CDT
Nautical Twilight 5:33 AM CDT 8:56 PM CDT
Astronomical Twilight 4:58 AM CDT 9:31 PM CDT
Moon 12:47 PM CDT 2:09 AM CDT
Length of Visible Light 14h 16m
Length of Day
13h 21m
First Quarter, 52% of the Moon is Illuminated
Apr 18
First Quarter
Apr 25
Full
May 2
Last Quarter
May 9
New
May 17
First Quarter

Hourly Weather History & Observations

Time (CDT) Temp. Windchill Dew Point Humidity Pressure Visibility Wind Dir Wind Speed Gust Speed Precip Events Conditions
12:15 AM 48.2 °F - 46.4 °F 93% 29.68 in 2.5 mi North 6.9 mph - N/A Rain , Thunderstorm Heavy Thunderstorms and Rain
12:35 AM 50.0 °F - 46.4 °F 87% 29.64 in 10.0 mi North 6.9 mph - N/A Rain , Thunderstorm Thunderstorms and Rain
12:55 AM 50.0 °F - 46.4 °F 87% 29.64 in 10.0 mi Calm Calm - N/A Rain , Thunderstorm Light Thunderstorms and Rain
1:15 AM 50.0 °F - 48.2 °F 94% 29.63 in 4.0 mi NW 5.8 mph - N/A Rain , Thunderstorm Thunderstorms and Rain
1:35 AM 50.0 °F - 48.2 °F 94% 29.64 in 10.0 mi Calm Calm - N/A Rain , Thunderstorm Light Thunderstorms and Rain
1:55 AM 50.0 °F - 48.2 °F 94% 29.63 in 7.0 mi SE 3.5 mph - N/A Rain , Thunderstorm Light Thunderstorms and Rain
2:15 AM 50.0 °F - 48.2 °F 94% 29.62 in 5.0 mi Calm Calm - N/A Rain , Thunderstorm Light Thunderstorms and Rain
2:35 AM 50.0 °F - 48.2 °F 94% 29.61 in 7.0 mi Calm Calm - N/A Rain Light Rain
2:55 AM 50.0 °F - 48.2 °F 94% 29.62 in 7.0 mi Calm Calm - N/A Rain , Thunderstorm Light Thunderstorms and Rain
3:15 AM 50.0 °F - 50.0 °F 100% 29.61 in 10.0 mi NW 6.9 mph - N/A Rain Light Rain
3:35 AM 48.2 °F - 46.4 °F 93% 29.60 in 10.0 mi NW 11.5 mph - N/A Rain , Thunderstorm Light Thunderstorms and Rain
3:55 AM 46.4 °F 42.9 °F 46.4 °F 100% 29.59 in 10.0 mi NW 6.9 mph - N/A Rain , Thunderstorm Light Thunderstorms and Rain
4:15 AM 46.4 °F 42.9 °F 44.6 °F 93% 29.55 in 10.0 mi NNE 6.9 mph - N/A Rain Light Rain
4:35 AM 46.4 °F 41.1 °F 44.6 °F 93% 29.51 in 10.0 mi ENE 11.5 mph - N/A Rain Light Rain
4:55 AM 44.6 °F 40.2 °F 44.6 °F 100% 29.57 in 10.0 mi WNW 8.1 mph 26.5 mph N/A   Overcast
5:15 AM 44.6 °F 42.2 °F 42.8 °F 93% 29.56 in 10.0 mi NNW 4.6 mph - N/A   Overcast
5:35 AM 44.6 °F - 42.8 °F 93% 29.56 in 10.0 mi Calm Calm - N/A   Overcast
5:55 AM 44.6 °F - 42.8 °F 93% 29.57 in 10.0 mi Calm Calm - 0.01 in Rain Light Rain
6:15 AM 44.6 °F 41.4 °F 44.6 °F 100% 29.58 in 10.0 mi WNW 5.8 mph - N/A Rain , Thunderstorm Light Thunderstorms and Rain
6:35 AM 44.6 °F 42.2 °F 44.6 °F 100% 29.57 in 7.0 mi NW 4.6 mph - N/A Rain , Thunderstorm Light Thunderstorms and Rain
6:55 AM 44.6 °F 38.4 °F 42.8 °F 93% 29.63 in 10.0 mi West 12.7 mph - N/A Rain , Thunderstorm Thunderstorms and Rain
7:15 AM 44.6 °F 39.7 °F 42.8 °F 93% 29.58 in 5.0 mi WNW 9.2 mph - N/A Rain , Thunderstorm Light Thunderstorms and Rain
7:35 AM 42.8 °F 36.6 °F 42.8 °F 100% 29.59 in 10.0 mi West 11.5 mph - N/A Rain Light Rain
7:55 AM 42.8 °F 37.0 °F 41.0 °F 93% 29.59 in 10.0 mi WNW 10.4 mph 16.1 mph N/A   Overcast
8:15 AM 42.8 °F 36.6 °F 41.0 °F 93% 29.61 in 10.0 mi West 11.5 mph - N/A   Overcast
8:35 AM 42.8 °F 38.0 °F 41.0 °F 93% 29.59 in 3.0 mi West 8.1 mph - N/A   Overcast
8:55 AM 42.8 °F 36.6 °F 41.0 °F 93% 29.60 in 3.0 mi West 11.5 mph - N/A   Overcast
9:15 AM 42.8 °F 35.8 °F 41.0 °F 93% 29.61 in 2.0 mi West 13.8 mph 19.6 mph N/A   Drizzle
9:35 AM 41.0 °F 32.8 °F 41.0 °F 100% 29.62 in 3.0 mi West 16.1 mph - N/A   Light Drizzle
9:55 AM 41.0 °F 32.5 °F 39.2 °F 93% 29.63 in 3.0 mi West 17.3 mph 21.9 mph N/A   Light Drizzle
10:15 AM 41.0 °F 32.8 °F 37.4 °F 87% 29.66 in 3.0 mi West 16.1 mph 21.9 mph N/A   Overcast
10:35 AM 39.2 °F 30.8 °F 37.4 °F 93% 29.66 in 5.0 mi West 15.0 mph 24.2 mph N/A   Overcast
10:55 AM 39.2 °F 29.8 °F 37.4 °F 93% 29.67 in 10.0 mi West 18.4 mph 25.3 mph N/A   Overcast
11:15 AM 41.0 °F 32.5 °F 35.6 °F 81% 29.68 in 10.0 mi West 17.3 mph 24.2 mph N/A   Overcast
11:35 AM 41.0 °F 32.8 °F 35.6 °F 81% 29.69 in 10.0 mi West 16.1 mph 24.2 mph N/A   Overcast
11:55 AM 39.2 °F 29.0 °F 35.6 °F 87% 29.71 in 10.0 mi West 21.9 mph 27.6 mph N/A   Overcast
12:15 PM 39.2 °F 30.5 °F 33.8 °F 81% 29.74 in 10.0 mi West 16.1 mph - N/A   Overcast
12:35 PM 39.2 °F 32.0 °F 33.8 °F 81% 29.74 in 10.0 mi West 11.5 mph 24.2 mph N/A   Overcast
12:55 PM 41.0 °F 33.1 °F 33.8 °F 76% 29.74 in 10.0 mi West 15.0 mph 21.9 mph N/A   Overcast
1:15 PM 41.0 °F 32.2 °F 33.8 °F 76% 29.74 in 10.0 mi West 18.4 mph 24.2 mph N/A   Overcast
1:35 PM 41.0 °F 31.6 °F 33.8 °F 76% 29.74 in 10.0 mi West 20.7 mph 26.5 mph N/A   Overcast
1:55 PM 41.0 °F 31.4 °F 33.8 °F 76% 29.75 in 10.0 mi West 21.9 mph 27.6 mph N/A   Overcast
2:15 PM 41.0 °F 32.2 °F 33.8 °F 76% 29.76 in 10.0 mi West 18.4 mph 24.2 mph N/A   Overcast
2:35 PM 41.0 °F 33.9 °F 33.8 °F 76% 29.77 in 10.0 mi West 12.7 mph 20.7 mph N/A   Overcast
2:55 PM 41.0 °F 32.5 °F 33.8 °F 76% 29.77 in 10.0 mi West 17.3 mph 23.0 mph N/A   Overcast
3:35 PM 39.2 °F 32.0 °F 32.0 °F 75% 29.78 in 10.0 mi West 11.5 mph 24.2 mph N/A   Overcast
3:55 PM 41.0 °F 32.2 °F 32.0 °F 70% 29.79 in 10.0 mi West 18.4 mph 24.2 mph 0.01 in   Overcast
4:15 PM 41.0 °F 32.2 °F 32.0 °F 70% 29.80 in 10.0 mi West 18.4 mph 24.2 mph N/A   Overcast
4:35 PM 41.0 °F 33.1 °F 32.0 °F 70% 29.81 in 10.0 mi West 15.0 mph 24.2 mph N/A   Overcast
4:55 PM 39.2 °F 30.5 °F 32.0 °F 75% 29.82 in 10.0 mi West 16.1 mph 24.2 mph N/A   Overcast
5:15 PM 39.2 °F 30.5 °F 32.0 °F 75% 29.83 in 10.0 mi West 16.1 mph 23.0 mph N/A   Overcast
5:35 PM 39.2 °F 29.8 °F 32.0 °F 75% 29.84 in 10.0 mi West 18.4 mph 23.0 mph N/A   Overcast
5:55 PM 39.2 °F 30.2 °F 32.0 °F 75% 29.85 in 10.0 mi West 17.3 mph 23.0 mph N/A   Overcast
6:15 PM 39.2 °F 30.8 °F 32.0 °F 75% 29.85 in 10.0 mi West 15.0 mph 18.4 mph N/A   Overcast
6:35 PM 39.2 °F 31.6 °F 32.0 °F 75% 29.86 in 10.0 mi West 12.7 mph 18.4 mph N/A   Overcast
6:55 PM 37.4 °F 29.8 °F 32.0 °F 81% 29.86 in 10.0 mi West 11.5 mph 21.9 mph N/A   Overcast
7:15 PM 37.4 °F 29.8 °F 32.0 °F 81% 29.86 in 10.0 mi West 11.5 mph 16.1 mph N/A   Overcast
7:35 PM 37.4 °F 30.8 °F 32.0 °F 81% 29.87 in 10.0 mi West 9.2 mph - N/A   Overcast
7:55 PM 37.4 °F 30.3 °F 32.0 °F 81% 29.88 in 10.0 mi West 10.4 mph 17.3 mph N/A   Overcast
8:15 PM 39.2 °F 32.5 °F 32.0 °F 75% 29.88 in 10.0 mi West 10.4 mph - N/A   Overcast
8:35 PM 39.2 °F 32.5 °F 32.0 °F 75% 29.89 in 10.0 mi West 10.4 mph - N/A   Overcast
9:55 PM 37.4 °F 28.5 °F 26.6 °F 65% 29.92 in 10.0 mi West 15.0 mph 26.5 mph N/A   Overcast
10:15 PM 37.4 °F 28.5 °F 28.4 °F 70% 29.92 in 10.0 mi WNW 15.0 mph 24.2 mph N/A   Overcast
10:35 PM 37.4 °F 30.3 °F 28.4 °F 70% 29.92 in 10.0 mi West 10.4 mph - N/A   Overcast
10:55 PM 37.4 °F 29.3 °F 28.4 °F 70% 29.91 in 10.0 mi West 12.7 mph 17.3 mph N/A   Overcast
11:15 PM 37.4 °F 29.3 °F 28.4 °F 70% 29.91 in 10.0 mi WNW 12.7 mph 19.6 mph N/A   Overcast
11:35 PM 37.4 °F 31.4 °F 28.4 °F 70% 29.90 in 10.0 mi West 8.1 mph - N/A   Overcast
11:55 PM 37.4 °F 30.8 °F 28.4 °F 70% 29.90 in 10.0 mi West 9.2 mph 16.1 mph 0.01 in   Overcast